EW4155 Weather Reports


time (UTC)temp
C
wind
direction
speed
KPH
gust
KPH
rain 1hr
cm
rain 24hr
cm
rain mn
cm
humidity
%
barometer
mb
20260505210022 31 187 8.0 19.3 0.00 0.00 0.00 67 1004.3
20260505205509 31 210 3.2 19.3 0.00 0.00 0.00 68 1004.3
20260505205010 31 127 4.8 16.1 0.00 0.00 0.00 68 1004.5
20260505204511 31 131 8.0 16.1 0.00 0.00 0.00 68 1004.6
20260505204010 31 130 4.8 16.1 0.00 0.00 0.00 68 1004.7
20260505203505 31 241 4.8 19.3 0.00 0.00 0.00 67 1004.9
20260505203026 30 154 4.8 19.3 0.00 0.00 0.00 68 1004.8
20260505202509 31 222 8.0 19.3 0.00 0.00 0.00 67 1005.0
20260505202009 30 113 6.4 19.3 0.00 0.00 0.00 68 1005.0
20260505201528 30 108 6.4 19.3 0.00 0.00 0.00 69 1005.0
20260505201008 30 195 6.4 16.1 0.00 0.00 0.00 68 1005.1
20260505200509 30 45 3.2 17.7 0.00 0.00 0.00 70 1005.2
20260505200021 30 117 8.0 17.7 0.00 0.00 0.00 69 1005.2
20260505195513 30 219 4.8 17.7 0.00 0.00 0.00 70 1005.2
20260505195010 30 227 8.0 19.3 0.00 0.00 0.00 70 1005.3
20260505194523 30 173 6.4 19.3 0.00 0.00 0.00 69 1005.3
20260505194014 29 221 8.0 17.7 0.00 0.00 0.00 70 1005.3
20260505193503 30 203 8.0 17.7 0.00 0.00 0.00 70 1005.3
20260505193013 29 212 8.0 19.3 0.00 0.00 0.00 70 1005.3
20260505192508 29 210 8.0 19.3 0.00 0.00 0.00 70 1005.3
20260505192006 29 95 4.8 17.7 0.00 0.00 0.00 71 1005.3
20260505191520 29 214 4.8 19.3 0.00 0.00 0.00 71 1005.4
20260505191011 29 214 6.4 19.3 0.00 0.00 0.00 72 1005.4
20260505190506 28 194 9.7 19.3 0.00 0.00 0.00 71 1005.5
20260505190022 28 293 6.4 20.9 0.00 0.00 0.00 72 1005.6
20260505185510 28 219 8.0 20.9 0.00 0.00 0.00 72 1005.6
20260505185012 28 171 8.0 17.7 0.00 0.00 0.00 73 1005.6
20260505184527 28 232 6.4 22.5 0.00 0.00 0.00 73 1005.7
20260505184012 28 166 11.3 22.5 0.00 0.00 0.00 71 1005.7
20260505183511 28 139 6.4 22.5 0.00 0.00 0.00 72 1005.8
20260505183027 28 187 11.3 22.5 0.00 0.00 0.00 72 1005.9
20260505182517 28 229 6.4 19.3 0.00 0.00 0.00 72 1005.9
20260505182007 28 196 6.4 20.9 0.00 0.00 0.00 73 1005.9
20260505181514 27 146 8.0 25.7 0.00 0.00 0.00 73 1006.0
20260505181009 27 252 8.0 25.7 0.00 0.00 0.00 73 1005.9
20260505180508 27 209 11.3 29.0 0.00 0.00 0.00 72 1006.0
20260505180037 27 125 11.3 29.0 0.00 0.00 0.00 74 1005.9
20260505175509 27 307 8.0 22.5 0.00 0.00 0.00 75 1005.8
20260505175008 27 233 3.2 25.7 0.00 0.00 0.00 77 1005.9
20260505174545 26 252 11.3 25.7 0.00 0.00 0.00 75 1005.8
20260505174009 27 176 12.9 25.7 0.00 0.00 0.00 74 1005.8
20260505173508 27 188 6.4 20.9 0.00 0.00 0.00 75 1005.8
20260505173032 27 187 9.7 20.9 0.00 0.00 0.00 75 1005.9
20260505172511 27 146 6.4 22.5 0.00 0.00 0.00 76 1005.9
20260505172012 27 165 8.0 22.5 0.00 0.00 0.00 76 1005.8
20260505171526 26 237 3.2 19.3 0.00 0.00 0.00 78 1005.9
20260505171011 26 187 1.6 22.5 0.00 0.00 0.00 79 1005.8
20260505170505 26 214 9.7 22.5 0.00 0.00 0.00 78 1005.7
20260505170018 26 189 11.3 22.5 0.00 0.00 0.00 78 1005.7
20260505165509 26 173 9.7 22.5 0.00 0.00 0.00 78 1005.7
20260505165009 26 183 11.3 22.5 0.00 0.00 0.00 78 1005.7
20260505164522 26 146 9.7 24.1 0.00 0.00 0.00 78 1005.8
20260505164008 26 217 6.4 24.1 0.00 0.00 0.00 78 1005.8
20260505163510 25 199 8.0 20.9 0.00 0.00 0.00 78 1005.9
20260505163025 25 202 11.3 22.5 0.00 0.00 0.00 78 1006.0
20260505162508 25 205 8.0 22.5 0.00 0.00 0.00 79 1006.0
20260505162010 25 212 11.3 22.5 0.00 0.00 0.00 79 1006.0
20260505161528 25 196 9.7 32.2 0.00 0.00 0.00 80 1005.9
20260505161009 25 211 11.3 32.2 0.00 0.00 0.00 79 1005.9
20260505160508 25 156 14.5 32.2 0.00 0.00 0.00 79 1005.8
20260505153006 23 174 12.9 25.7 0.00 0.00 0.00 82 1005.7
20260505152505 23 230 9.7 25.7 0.00 0.00 0.00 82 1005.8
20260505152007 23 95 9.7 30.6 0.00 0.00 0.00 82 1005.9
20260505151512 23 185 12.9 30.6 0.00 0.00 0.00 82 1006.1
20260505151009 23 200 11.3 24.1 0.00 0.00 0.00 82 1006.1
20260505150510 23 198 9.7 24.1 0.00 0.00 0.00 82 1006.2
20260505140504 23 202 12.9 25.7 0.00 0.00 0.00 84 1005.5
20260505125004 21 221 9.7 25.7 0.00 0.00 0.00 89 1005.2
20260505124512 21 162 6.4 20.9 0.00 0.00 0.00 90 1005.1
20260505124008 21 216 8.0 20.9 0.00 0.00 0.00 90 1005.1
20260505123507 21 211 6.4 22.5 0.00 0.00 0.00 90 1005.1
20260505123017 21 196 4.8 22.5 0.00 0.00 0.00 90 1005.2
20260505122507 21 176 4.8 20.9 0.00 0.00 0.00 90 1005.0
20260505122008 20 195 6.4 24.1 0.00 0.00 0.00 90 1005.0
20260505121522 20 216 9.7 24.1 0.00 0.00 0.00 90 1004.8
20260505121009 20 250 8.0 19.3 0.00 0.00 0.00 90 1004.8
20260505120508 20 30 8.0 19.3 0.00 0.00 0.00 90 1004.8
20260505120031 20 213 8.0 22.5 0.00 0.00 0.00 90 1004.9
20260505115505 20 229 9.7 22.5 0.00 0.00 0.00 90 1004.9
20260505115005 20 228 9.7 20.9 0.00 0.00 0.00 90 1004.8
20260505114510 20 256 9.7 24.1 0.00 0.00 0.00 90 1004.8
20260505114007 20 246 9.7 24.1 0.00 0.00 0.00 90 1004.6
20260505113510 20 231 8.0 17.7 0.00 0.00 0.00 90 1004.8
20260505113019 20 165 4.8 22.5 0.00 0.00 0.00 90 1004.7
20260505112507 20 188 11.3 25.7 0.00 0.00 0.00 90 1004.6
20260505112008 20 263 12.9 25.7 0.00 0.00 0.00 90 1004.6
20260505111519 20 197 8.0 24.1 0.00 0.00 0.00 90 1004.6
20260505111010 20 157 8.0 24.1 0.00 0.00 0.00 90 1004.5
20260505110507 20 203 8.0 22.5 0.00 0.00 0.00 90 1004.5
20260505102009 20 210 11.3 24.1 0.00 0.00 0.00 89 1004.5
20260505101530 20 225 12.9 22.5 0.00 0.00 0.00 89 1004.6
20260505101006 20 211 8.0 22.5 0.00 0.00 0.00 89 1004.6
20260505100508 20 208 8.0 27.4 0.00 0.00 0.00 89 1004.5
20260505100023 21 136 8.0 27.4 0.00 0.00 0.00 89 1004.3
20260505095508 21 222 8.0 27.4 0.00 0.00 0.00 89 1004.5
20260505095014 21 275 9.7 27.4 0.00 0.00 0.00 89 1004.6
20260505094526 21 190 9.7 27.4 0.00 0.00 0.00 89 1004.6
20260505094008 21 212 8.0 27.4 0.00 0.00 0.00 89 1004.8
20260505093509 21 198 8.0 29.0 0.00 0.00 0.00 89 1004.8
20260505093035 21 233 9.7 29.0 0.00 0.00 0.00 89 1004.8
20260505092509 21 241 12.9 27.4 0.00 0.00 0.00 89 1004.9
20260505092004 21 191 11.3 22.5 0.00 0.00 0.00 89 1004.7
20260505091518 21 243 11.3 22.5 0.00 0.00 0.00 89 1004.8
20260505091007 21 243 9.7 22.5 0.00 0.00 0.00 89 1004.9
20260505090508 20 146 11.3 24.1 0.00 0.00 0.00 89 1004.7
20260505090023 20 221 8.0 24.1 0.00 0.00 0.00 89 1004.8
20260505085511 20 240 12.9 24.1 0.00 0.00 0.00 89 1004.8
20260505085009 20 188 11.3 25.7 0.00 0.00 0.00 89 1004.7
20260505084524 20 155 12.9 29.0 0.00 0.00 0.00 89 1004.8
20260505084008 20 209 8.0 29.0 0.00 0.00 0.00 89 1004.7
20260505083513 20 202 11.3 27.4 0.00 0.00 0.00 89 1004.6
20260505083027 20 237 11.3 25.7 0.00 0.00 0.00 89 1004.6
20260505082510 20 238 8.0 29.0 0.00 0.00 0.00 89 1005.0
20260505082009 20 212 12.9 29.0 0.00 0.00 0.00 89 1004.9
20260505081530 20 190 8.0 25.7 0.00 0.00 0.00 89 1005.0
20260505081005 20 186 12.9 25.7 0.00 0.00 0.00 89 1004.8
20260505080504 20 191 12.9 24.1 0.00 0.00 0.00 89 1004.9
20260505080015 20 214 9.7 24.1 0.00 0.00 0.00 89 1005.2
20260505075504 20 226 11.3 24.1 0.00 0.00 0.00 89 1005.3
20260505075008 20 217 9.7 25.7 0.00 0.00 0.00 89 1005.2
20260505074522 20 221 14.5 25.7 0.00 0.00 0.00 89 1005.2
20260505074009 20 218 6.4 25.7 0.00 0.00 0.00 89 1005.3
20260505073508 20 204 9.7 25.7 0.00 0.00 0.00 89 1005.4
20260505073027 20 223 9.7 27.4 0.00 0.00 0.00 88 1005.5
20260505072512 20 183 9.7 27.4 0.00 0.00 0.00 88 1005.5
20260505072008 20 226 8.0 24.1 0.00 0.00 0.00 88 1005.6
20260505071526 21 191 9.7 25.7 0.00 0.00 0.00 88 1005.8
20260505071008 21 232 9.7 25.7 0.00 0.00 0.00 87 1005.8
20260505070511 21 212 11.3 20.9 0.00 0.00 0.00 87 1005.9
20260505070026 21 203 9.7 29.0 0.00 0.00 0.00 87 1005.9
20260505065505 21 191 11.3 29.0 0.00 0.00 0.00 87 1006.0
20260505065008 21 218 9.7 22.5 0.00 0.00 0.00 86 1006.1
20260505064522 21 191 11.3 25.7 0.00 0.00 0.00 86 1006.2
20260505064001 21 206 8.0 27.4 0.00 0.00 0.00 86 1006.2
20260505063502 21 217 9.7 29.0 0.00 0.00 0.00 85 1006.1
20260505063006 21 204 14.5 29.0 0.00 0.00 0.00 85 1006.1
20260505062504 21 191 6.4 25.7 0.00 0.00 0.00 85 1006.2
20260505062009 21 134 9.7 25.7 0.00 0.00 0.00 85 1006.2
20260505061510 21 156 11.3 25.7 0.00 0.00 0.00 85 1006.1
20260505061006 21 183 8.0 20.9 0.00 0.00 0.00 84 1006.1
20260505060505 21 205 9.7 22.5 0.00 0.00 0.00 84 1006.2
20260505060015 21 168 9.7 29.0 0.00 0.00 0.00 84 1006.2
20260505055506 21 233 12.9 29.0 0.00 0.00 0.00 84 1006.2
20260505055009 21 100 8.0 27.4 0.00 0.00 0.00 83 1006.1
20260505054518 22 203 12.9 27.4 0.00 0.00 0.00 83 1006.1
20260505054011 22 225 8.0 22.5 0.00 0.00 0.00 83 1006.2
20260505053508 22 182 8.0 27.4 0.00 0.00 0.00 82 1006.2
20260505053020 22 219 8.0 27.4 0.00 0.00 0.00 82 1006.4
20260505052501 22 231 11.3 25.7 0.00 0.00 0.00 82 1006.5
20260505052004 22 191 11.3 27.4 0.00 0.00 0.00 82 1006.5
20260505051518 22 139 12.9 27.4 0.00 0.00 0.00 81 1006.6
20260505051005 22 266 6.4 30.6 0.00 0.00 0.00 81 1006.6
20260505050509 22 190 11.3 30.6 0.00 0.00 0.00 81 1006.7
20260505041527 22 160 8.0 24.1 0.00 0.00 0.00 79 1006.8
20260505041003 22 172 8.0 24.1 0.00 0.00 0.00 79 1006.9
20260505040506 22 174 9.7 19.3 0.00 0.00 0.00 79 1006.7
20260505040010 22 213 4.8 19.3 0.00 0.00 0.00 79 1006.8
20260505035505 22 165 6.4 20.9 0.00 0.00 0.00 79 1006.9
20260505035004 22 158 8.0 20.9 0.00 0.00 0.00 79 1006.8
20260505034515 22 116 8.0 17.7 0.00 0.00 0.00 80 1006.7
20260505034004 22 204 4.8 12.9 0.00 0.00 0.00 80 1006.7
20260505033508 22 195 1.6 14.5 0.00 0.00 0.00 80 1006.8
20260505033019 22 205 3.2 17.7 0.00 0.00 0.00 79 1006.8
20260505032507 22 212 4.8 17.7 0.00 0.00 0.00 79 1006.8
20260505032007 22 121 3.2 17.7 0.00 0.00 0.00 79 1006.8
20260505031523 22 244 3.2 16.1 0.00 0.00 0.00 80 1006.9
20260505031007 22 84 3.2 16.1 0.00 0.00 0.00 79 1007.0
20260505030508 22 155 3.2 11.3 0.00 0.00 0.00 79 1007.0
20260505030024 22 113 3.2 12.9 0.00 0.00 0.00 79 1007.1
20260505025505 22 185 3.2 12.9 0.00 0.00 0.00 79 1006.8
20260505025006 22 142 3.2 14.5 0.00 0.00 0.00 79 1006.9
20260505024512 22 162 4.8 14.5 0.00 0.00 0.00 79 1006.9
20260505024007 22 177 1.6 12.9 0.00 0.00 0.00 78 1006.9
20260505023504 22 180 3.2 12.9 0.00 0.00 0.00 78 1006.7
20260505023016 22 148 3.2 12.9 0.00 0.00 0.00 78 1006.7
20260505022506 22 30 4.8 12.9 0.00 0.00 0.00 78 1006.7
20260505022010 22 202 3.2 14.5 0.00 0.00 0.00 78 1006.7
20260505021518 22 167 1.6 14.5 0.00 0.00 0.00 77 1006.7
20260505021005 22 201 1.6 12.9 0.00 0.00 0.00 77 1006.7
20260505020505 22 93 3.2 9.7 0.00 0.00 0.00 77 1006.7
20260505020023 22 150 1.6 16.1 0.00 0.00 0.00 77 1006.5
20260505015512 22 244 3.2 16.1 0.00 0.00 0.00 76 1006.6
20260505015012 23 65 4.8 11.3 0.00 0.00 0.00 76 1006.6
20260505014508 23 157 3.2 17.7 0.00 0.00 0.00 76 1006.6
20260505014007 23 133 1.6 17.7 0.00 0.00 0.00 75 1006.6
20260505013503 23 95 6.4 17.7 0.00 0.00 0.00 75 1006.6
20260505013012 23 195 4.8 12.9 0.00 0.00 0.00 75 1006.5
20260505012506 23 91 1.6 20.9 0.00 0.00 0.00 74 1006.6
20260505012009 23 231 4.8 20.9 0.00 0.00 0.00 74 1006.6
20260505011517 23 186 4.8 19.3 0.00 0.00 0.00 74 1006.4
20260505011006 23 115 6.4 16.1 0.00 0.00 0.00 74 1006.5
20260505010508 23 219 3.2 17.7 0.00 0.00 0.00 74 1006.5
20260505010019 23 144 3.2 17.7 0.00 0.00 0.00 73 1006.5
20260505005508 23 215 6.4 17.7 0.00 0.00 0.00 73 1006.6
20260505005008 23 174 4.8 16.1 0.00 0.00 0.00 73 1006.6
20260505004526 23 201 3.2 20.9 0.00 0.00 0.00 72 1006.6
20260505004008 24 185 6.4 20.9 0.00 0.00 0.00 72 1006.6
20260505003511 24 155 8.0 17.7 0.00 0.00 0.00 72 1006.6
20260505003018 24 229 3.2 14.5 0.00 0.00 0.00 71 1006.8
20260505002508 24 134 6.4 19.3 0.00 0.00 0.00 71 1006.9
20260505002004 24 130 8.0 20.9 0.00 0.00 0.00 70 1006.8
20260505001514 24 224 8.0 20.9 0.00 0.00 0.00 70 1006.9
20260505001004 25 149 4.8 19.3 0.00 0.00 0.00 70 1007.0
20260505000507 25 219 6.4 25.7 0.00 0.00 0.00 69 1007.0
20260505000018 25 120 4.8 25.7 0.00 0.00 0.00 69 1007.0
20260504235505 25 203 8.0 17.7 0.00 0.00 0.00 69 1007.0
20260504235009 25 198 6.4 17.7 0.00 0.00 0.00 69 1007.0
20260504234523 25 143 6.4 25.7 0.00 0.00 0.00 68 1007.1
20260504234008 25 199 6.4 25.7 0.00 0.00 0.00 68 1007.1
20260504233508 25 155 9.7 22.5 0.00 0.00 0.00 68 1007.2
20260504233024 25 102 11.3 25.7 0.00 0.00 0.00 67 1007.2
20260504232509 25 135 8.0 27.4 0.00 0.00 0.00 67 1007.3
20260504232012 25 210 6.4 27.4 0.00 0.00 0.00 67 1007.2
20260504231513 25 264 9.7 25.7 0.00 0.00 0.00 67 1007.4
20260504231005 25 152 11.3 20.9 0.00 0.00 0.00 67 1007.3
20260504230504 25 105 4.8 20.9 0.00 0.00 0.00 67 1007.3
20260504230017 25 211 6.4 22.5 0.00 0.00 0.00 67 1007.4
20260504225514 25 198 8.0 25.7 0.00 0.00 0.00 66 1007.5
20260504225008 26 207 6.4 25.7 0.00 0.00 0.00 66 1007.5
20260504224521 26 241 9.7 24.1 0.00 0.00 0.00 65 1007.6
20260504224008 26 136 8.0 25.7 0.00 0.00 0.00 64 1007.7
20260504223508 26 161 9.7 27.4 0.00 0.00 0.00 64 1007.7
20260504223026 26 143 11.3 27.4 0.00 0.00 0.00 64 1007.7
20260504222508 26 205 12.9 27.4 0.00 0.00 0.00 64 1007.7
20260504222010 26 188 4.8 27.4 0.00 0.00 0.00 66 1007.6
20260504221528 26 100 11.3 29.0 0.00 0.00 0.00 66 1007.6
20260504221011 26 126 11.3 29.0 0.00 0.00 0.00 66 1007.6
20260504220513 26 202 9.7 29.0 0.00 0.00 0.00 65 1007.7
20260504220015 26 126 11.3 27.4 0.00 0.00 0.00 65 1007.7
20260504215507 26 156 9.7 22.5 0.00 0.00 0.00 65 1007.9
20260504215008 26 76 8.0 22.5 0.00 0.00 0.00 66 1007.9
20260504214518 26 116 6.4 29.0 0.00 0.00 0.00 66 1008.0
20260504214007 26 222 12.9 29.0 0.00 0.00 0.00 64 1008.0
20260504213507 26 203 11.3 29.0 0.00 0.00 0.00 64 1008.0
20260504213023 26 208 8.0 29.0 0.00 0.00 0.00 65 1008.1
20260504212508 26 188 9.7 25.7 0.00 0.00 0.00 64 1008.2
20260504212009 26 207 14.5 32.2 0.00 0.00 0.00 64 1008.3
20260504211506 26 58 12.9 32.2 0.00 0.00 0.00 64 1008.4
20260504211003 26 193 14.5 25.7 0.00 0.00 0.00 63 1008.6
20260504210506 26 149 8.0 25.7 0.00 0.00 0.00 64 1008.6